This demonstration page uses our WeatherBlox Daily Observations layout. Learn more.

Left ArrowRight Arrow

39.92423, -83.80882

Hourly Observations for January 13, 2020

Temp ( °F °C ) Dew Point ( °F °C ) Humidity (%) Winds ( mph kmh ) Pressure ( in mb ) Visibility ( mi km ) Precip ( " mm )
12:56 am 00:56 Cloudy 40 4.4 39 3.9 97 97 SSE 5 7 30.25 1024 10 16.0934 0 0
1:56 am 01:56 Cloudy 40 4.4 39 3.9 97 97 S 6 9 30.25 1025 10 16.0934 0 0
2:56 am 02:56 Cloudy 41 5 39 3.9 93 93 S 6 9 30.25 1025 10 16.0934 0 0
3:56 am 03:56 Cloudy 42 5.6 39 3.9 89 89 SW 15 24 30.24 1024 10 16.0934 0 0
4:56 am 04:56 Cloudy 42 5.6 38 3.3 85 85 WSW 14 22 30.24 1024 10 16.0934 0 0
5:56 am 05:56 Cloudy 41 5 38 3.3 89 89 WSW 14 22 30.26 1025 10 16.0934 0 0
6:56 am 06:56 Cloudy 41 5 38 3.3 89 89 W 14 22 30.28 1026 10 16.0934 0 0
7:56 am 07:56 Cloudy 40 4.4 37 2.8 89 89 W 8 13 30.32 1027 10 16.0934 0 0
8:56 am 08:56 Cloudy 40 4.4 37 2.8 89 89 W 9 15 30.35 1028 10 16.0934 0 0
9:56 am 09:56 Cloudy 40 4.4 36 2.2 86 86 WSW 7 11 30.36 1028 10 16.0934 0 0
10:56 am 10:56 Cloudy 41 5 36 2.2 82 82 W 12 19 30.39 1029 10 16.0934 0 0
11:56 am 11:56 Cloudy 41 5 36 2.2 82 82 W 12 19 30.4 1029 10 16.0934 0 0
12:56 pm 12:56 Cloudy 42 5.6 36 2.2 79 79 WSW 10 17 30.39 1029 10 16.0934 0 0
1:56 pm 13:56 Cloudy 43 6.1 36 2.2 76 76 SW 8 13 30.36 1028 10 16.0934 0 0
2:48 pm 14:48 Partly Cloudy 43 6 36 2 76 76 Calm 30.36 1028 10 16.0934 0 0
2:56 pm 14:56 Mostly Cloudy 43 6.1 36 2.2 76 76 WNW 5 7 30.35 1028 10 16.0934 0 0
3:24 pm 15:24 Partly Cloudy 45 7 36 2 71 71 WNW 3 6 30.35 1028 10 16.0934 0 0
3:56 pm 15:56 Sunny 44 6.7 36 2.2 73 73 WNW 5 7 30.36 1028 10 16.0934 0 0
4:56 pm 16:56 Sunny 43 6.1 35 1.7 74 74 Calm 30.36 1028 10 16.0934 0 0
5:56 pm 17:56 Clear 40 4.4 34 1.1 79 79 NNE 3 6 30.37 1029 10 16.0934 0 0
6:56 pm 18:56 Clear 34 1.1 32 0 92 92 NE 5 7 30.37 1028 10 16.0934 0 0
7:56 pm 19:56 Clear 34 1.1 33 0.6 97 97 NE 7 11 30.37 1028 10 16.0934 0 0
8:56 pm 20:56 Clear 33 0.6 33 0.6 100 100 ENE 6 9 30.36 1028 10 16.0934 0 0
9:56 pm 21:56 Clear 32 0 32 0 100 100 E 7 11 30.33 1027 10 16.0934 0 0
10:56 pm 22:56 Clear 32 0 32 0 100 100 E 8 13 30.3 1026 10 16.0934 0 0
11:56 pm 23:56 Clear 35 1.7 34 1.1 96 96 E 10 17 30.28 1025 10 16.0934 0 0

Powered by AerisWeather